Pueblo, CO

4:54 AM MDT on October 23, 2017 (GMT -0600)
Pueblo Memorial

Weather History for KPUB - June, 2012

Change the Weather History Date:

Saturday, June 9, 2012

  Actual Average Record
Temperature  
Mean Temperature 76 °F 68 °F  
Max Temperature 99 °F 85 °F 105 °F (1981)
Min Temperature 52 °F 51 °F 42 °F (1974)
Degree Days  
Heating Degree Days 0 1  
Month to date heating degree days 0 15  
Since 1 June heating degree days 0 15  
Since 1 July heating degree days 5029 5628  
Cooling Degree Days 11 4  
Month to date cooling degree days 84 30  
Year to date cooling degree days 137 64  
Since 1 June cooling degree days 84 30  
Growing Degree Days 26 (Base 50)    
Moisture  
Dew Point 18 °F    
Average Humidity 20    
Maximum Humidity 35    
Minimum Humidity 4    
Precipitation  
Precipitation 0.00 in 0.05 in 0.80 in (1975)
Month to date precipitation T 0.43  
Year to date precipitation 2.46 4.92  
Snow  
Snow 0.00 in 0.00 in 0.00 in (2002)
Month to date snowfall 0.0 0.0  
Since 1 June snowfall 0.0 0.0  
Since 1 July snowfall 32.1 31.8  
Snow Depth 0.00 in    
Sea Level Pressure  
Sea Level Pressure 29.42 in    
Wind  
Wind Speed 7 mph (SW)    
Max Wind Speed 21 mph    
Max Gust Speed 25 mph    
Visibility 10 miles    
Events      
T = Trace of Precipitation, MM = Missing Value Source: NWS Daily Summary

Daily Weather History Graph

Daily Weather History Graph

Search for Another Location

Airport or City:

Trip Planner

Search our weather history database for the weather conditions in past years. The results will help you decide how hot, cold, wet, or windy it might be!

Date:

Astronomy

Jun. 09, 2012 Rise Set
Actual Time 5:34 AM MDT 8:20 PM MDT
Civil Twilight 5:02 AM MDT 8:52 PM MDT
Nautical Twilight 4:23 AM MDT 9:31 PM MDT
Astronomical Twilight 3:38 AM MDT 10:16 PM MDT
Moon No Moon Rise 11:18 AM MDT (6/9)
Length of Visible Light 15h 49m
Length of Day
14h 46m
Waning Gibbous, 67% of the Moon is Illuminated
Jun 9
Waning Gibbous
Jun 11
Last Quarter
Jun 19
New
Jun 26
First Quarter
Jul 3
Full

Hourly Weather History & Observations

Time (MDT) Temp. Dew Point Humidity Pressure Visibility Wind Dir Wind Speed Gust Speed Precip Events Conditions
12:53 AM 64.9 °F 19.0 °F 17% 29.52 in 10.0 mi NW 9.2 mph - N/A   Clear
1:53 AM 66.9 °F 23.0 °F 19% 29.49 in 10.0 mi SW 3.5 mph - N/A   Clear
2:53 AM 61.0 °F 28.0 °F 29% 29.49 in 10.0 mi SSE 4.6 mph - N/A   Clear
3:53 AM 60.1 °F 23.0 °F 24% 29.49 in 10.0 mi ESE 4.6 mph - N/A   Clear
4:53 AM 54.0 °F 21.9 °F 29% 29.51 in 10.0 mi Calm Calm - N/A   Clear
5:53 AM 52.0 °F 24.1 °F 34% 29.53 in 10.0 mi Calm Calm - N/A   Clear
6:53 AM 63.0 °F 28.9 °F 28% 29.52 in 10.0 mi NNW 8.1 mph - N/A   Clear
7:53 AM 66.9 °F 32.0 °F 27% 29.52 in 10.0 mi ESE 3.5 mph - N/A   Clear
8:53 AM 77.0 °F 30.0 °F 18% 29.51 in 10.0 mi Calm Calm - N/A   Clear
9:53 AM 87.1 °F 15.1 °F 7% 29.48 in 10.0 mi Calm Calm - N/A   Clear
10:53 AM 89.1 °F 14.0 °F 6% 29.47 in 4.0 mi SE 5.8 mph - N/A   Haze
10:59 AM 89.6 °F 14.0 °F 6% 29.70 in 10.0 mi SSE 4.6 mph - N/A   Clear
11:53 AM 91.9 °F 12.9 °F 5% 29.45 in 10.0 mi SE 10.4 mph - N/A   Clear
12:53 PM 93.9 °F 12.0 °F 5% 29.42 in 10.0 mi WSW 8.1 mph - N/A   Clear
1:53 PM 96.1 °F 14.0 °F 5% 29.38 in 10.0 mi WSW 9.2 mph - N/A   Clear
2:53 PM 96.1 °F 12.9 °F 5% 29.37 in 10.0 mi Variable 4.6 mph - N/A   Clear
3:53 PM 98.1 °F 12.9 °F 4% 29.34 in 10.0 mi Calm Calm - N/A   Clear
4:53 PM 97.0 °F 12.9 °F 5% 29.33 in 10.0 mi Variable 4.6 mph - N/A   Clear
5:53 PM 98.1 °F 9.0 °F 4% 29.31 in 9.0 mi SW 17.3 mph - N/A   Clear
6:53 PM 95.0 °F 12.9 °F 5% 29.30 in 10.0 mi WSW 17.3 mph 25.3 mph N/A   Clear
7:53 PM 90.0 °F 19.0 °F 7% 29.31 in 10.0 mi SW 13.8 mph - N/A   Clear
8:53 PM 86.0 °F 19.0 °F 8% 29.32 in 10.0 mi WSW 10.4 mph - N/A   Clear
9:53 PM 82.0 °F 18.0 °F 9% 29.33 in 10.0 mi SW 9.2 mph - N/A   Clear
10:53 PM 80.1 °F 17.1 °F 9% 29.34 in 10.0 mi West 8.1 mph - N/A   Clear
11:53 PM 81.0 °F 19.0 °F 10% 29.33 in 10.0 mi West 12.7 mph - N/A   Clear